Briefing drone pour Pleaux

Rechercher une autre localisation

Conditions de vol :


Nous sommes le : Mardi 31 janvier 2023
Il est 13:05 UTC (14:05 LT)

Lever de soleil : 06:46 UTC (07:46 LT)
Coucher de soleil : 17:22 UTC (18:22 LT)

Météo

L'essentiel des conditions de vol

VIGILANCE MÉTÉO FRANCE - Cantal (15)
Pas de vigilances particulieres
CARTES DES FRONTS
METAR de LFLW
LFLW 311200Z AUTO 32008KT 260V360 9999 OVC028 06/01 Q1029

Date d'émission: 31/01/2023
Heure d'émission: 12:00 UTC
Vent: 320° (variable du 260° au 360°) pour 8 KT (15 km/h)
Visibilité horizontale: > 10 km
Plafond :
- Couvert à 2800ft (853m)
Température: 6 °C
Point de rosée: 1 °C
Humidité: 70%
Pression (QNH): 1029 hPa
Prévision 24h pour Aurillac (18 km)
Vent : 10° pour 1 KT (3 km/h)
Temperature Maxi: 1 °C
Temperature Min: 1 °C
Humidité : 89%
Condition : Peu nuageux



Warning: count(): Parameter must be an array or an object that implements Countable in /homepages/6/d509196549/htdocs/droneoxygene/briefing.php on line 743
WEBCAM POUR PLEAUX

Réglementation

Voler en sécurité

CARTES AERONAUTIQUE 1/500.000
CARTE AZBA (Reseau basse altitude)
CARTES VAC (LFLW)
SUP AIP




Chargement des AIP...
NOTAM (PLEAUX + Terrain à proximité / FIR )




Chargement des NOTAMS...
CONTACT PREFECTURE 15
Cantal (15) : [email protected]


Avertissement : Les données mises à disposition sont indicatives. Oxygène Drone ne pourra être tenu responsable de dégâts causés aux biens et aux personnes.